EN

Hourly Weather Alzate Brianza

Today, 18 January, Monday

Time Temperature Precipitation Wind Pressure Humidity
00:00 +1°C° 0 mm 1 mps 736 mmHg 78%
01:00 +1°C° 0 mm 1 mps 736 mmHg 74%
02:00 +1°C° 0 mm 1 mps 736 mmHg 74%
03:00 +1°C° 0 mm 1 mps 736 mmHg 73%
04:00 +1°C° 0 mm 1 mps 736 mmHg 73%
05:00 +1°C° 0 mm 1 mps 737 mmHg 72%
06:00 +1°C° 0 mm 1 mps 737 mmHg 71%
07:00 +1°C° 0 mm 1 mps 737 mmHg 70%
08:00 +1°C° 0 mm 1 mps 738 mmHg 66%
09:00 +2°C° 0 mm 1 mps 738 mmHg 61%
10:00 +3°C° 0 mm 1 mps 738 mmHg 57%
11:00 +4°C° 0 mm 1 mps 738 mmHg 54%
12:00 +5°C° 0 mm 1 mps 737 mmHg 51%
13:00 +6°C° 0 mm 1 mps 737 mmHg 48%
14:00 +5°C° 0 mm 1 mps 737 mmHg 50%
15:00 +5°C° 0 mm 1 mps 737 mmHg 52%
16:00 +5°C° 0 mm 1 mps 737 mmHg 54%
17:00 +4°C° 0 mm 1 mps 737 mmHg 57%
18:00 +2°C° 0 mm 0 mps 738 mmHg 60%
19:00 +1°C° 0 mm 0 mps 738 mmHg 63%
20:00 +2°C° 0 mm 1 mps 738 mmHg 62%
21:00 +2°C° 0 mm 1 mps 738 mmHg 60%
22:00 +2°C° 0 mm 1 mps 738 mmHg 59%
23:00 +1°C° 0 mm 1 mps 738 mmHg 58%

Tomorrow, 19 January, Tuesday

Time Temperature Precipitation Wind Pressure Humidity
00:00 +1°C° 0 mm 1 mps 738 mmHg 56%
01:00 +1°C° 0 mm 1 mps 738 mmHg 55%
02:00 +1°C° 0 mm 1 mps 738 mmHg 54%
03:00 +1°C° 0 mm 1 mps 737 mmHg 53%
04:00 0°C° 0 mm 0 mps 737 mmHg 52%
05:00 0°C° 0 mm 0 mps 737 mmHg 52%
06:00 0°C° 0 mm 0 mps 737 mmHg 51%
07:00 0°C° 0 mm 0 mps 737 mmHg 51%
08:00 0°C° 0 mm 0 mps 737 mmHg 48%
09:00 +1°C° 0 mm 0 mps 737 mmHg 46%
10:00 +2°C° 0 mm 0 mps 737 mmHg 43%
11:00 +3°C° 0 mm 0 mps 736 mmHg 41%
12:00 +4°C° 0 mm 0 mps 736 mmHg 39%
13:00 +5°C° 0 mm 0 mps 736 mmHg 37%
14:00 +5°C° 0 mm 0 mps 736 mmHg 40%
15:00 +4°C° 0 mm 0 mps 735 mmHg 43%
16:00 +5°C° 0 mm 1 mps 735 mmHg 46%
17:00 +4°C° 0 mm 1 mps 735 mmHg 48%
18:00 +4°C° 0 mm 1 mps 735 mmHg 50%
19:00 +3°C° 0 mm 1 mps 736 mmHg 52%
20:00 +3°C° 0 mm 1 mps 736 mmHg 53%
21:00 +3°C° 0 mm 1 mps 736 mmHg 53%
22:00 +3°C° 0 mm 1 mps 735 mmHg 53%
23:00 +3°C° 0 mm 1 mps 735 mmHg 55%

Day after tomorrow, 20 January, Wednesday

Time Temperature Precipitation Wind Pressure Humidity
00:00 +3°C° 0 mm 1 mps 735 mmHg 57%
01:00 +3°C° 0 mm 1 mps 735 mmHg 59%
02:00 +3°C° 0 mm 1 mps 735 mmHg 60%
03:00 +3°C° 0 mm 1 mps 735 mmHg 61%
04:00 +3°C° 0 mm 1 mps 734 mmHg 63%
05:00 +3°C° 0 mm 1 mps 734 mmHg 63%
06:00 +3°C° 0 mm 1 mps 734 mmHg 64%
07:00 +3°C° 0 mm 1 mps 734 mmHg 64%
08:00 +3°C° 0 mm 1 mps 734 mmHg 64%
09:00 +3°C° 0 mm 1 mps 734 mmHg 64%
10:00 +3°C° 0 mm 0 mps 734 mmHg 63%
11:00 +3°C° 0 mm 0 mps 733 mmHg 63%
12:00 +4°C° 0 mm 0 mps 733 mmHg 62%
13:00 +5°C° 0 mm 0 mps 733 mmHg 61%
14:00 +4°C° 0.1 mm 0 mps 732 mmHg 69%
15:00 +3°C° 0.1 mm 0 mps 732 mmHg 76%
16:00 +3°C° 0.1 mm 0 mps 731 mmHg 83%
17:00 +3°C° 0.3 mm 0 mps 732 mmHg 87%
18:00 +2°C° 0.3 mm 0 mps 732 mmHg 91%
19:00 +2°C° 0.3 mm 0 mps 732 mmHg 94%
20:00 +2°C° 0.5 mm 0 mps 732 mmHg 95%
21:00 +2°C° 0.5 mm 0 mps 731 mmHg 95%
22:00 +2°C° 0.5 mm 0 mps 731 mmHg 95%
23:00 +3°C° 0.5 mm 0 mps 731 mmHg 96%

21 January, Thursday

Time Temperature Precipitation Wind Pressure Humidity
00:00 +3°C° 0.5 mm 0 mps 731 mmHg 96%
01:00 +3°C° 0.5 mm 0 mps 731 mmHg 96%
02:00 +3°C° 0.6 mm 0 mps 730 mmHg 96%
03:00 +3°C° 0.6 mm 0 mps 730 mmHg 96%
04:00 +3°C° 0.6 mm 0 mps 729 mmHg 96%
05:00 +3°C° 0.9 mm 0 mps 729 mmHg 96%
06:00 +3°C° 0.9 mm 0 mps 729 mmHg 96%
07:00 +3°C° 0.9 mm 0 mps 729 mmHg 96%
08:00 +3°C° 0.7 mm 0 mps 729 mmHg 96%
09:00 +3°C° 0.7 mm 0 mps 729 mmHg 96%
10:00 +3°C° 0.7 mm 0 mps 728 mmHg 96%
11:00 +4°C° 0.3 mm 0 mps 728 mmHg 96%
12:00 +4°C° 0.3 mm 0 mps 728 mmHg 96%
13:00 +4°C° 0.3 mm 0 mps 727 mmHg 95%
14:00 +4°C° 0.3 mm 0 mps 727 mmHg 96%
15:00 +4°C° 0.3 mm 0 mps 726 mmHg 96%
16:00 +4°C° 0.3 mm 0 mps 726 mmHg 96%
17:00 +4°C° 0.7 mm 0 mps 726 mmHg 96%
18:00 +4°C° 0.7 mm 0 mps 726 mmHg 97%
19:00 +4°C° 0.7 mm 0 mps 726 mmHg 97%
20:00 +5°C° 1.3 mm 1 mps 725 mmHg 97%
21:00 +5°C° 1.3 mm 1 mps 724 mmHg 97%
22:00 +5°C° 1.3 mm 1 mps 724 mmHg 97%
23:00 +5°C° 1.8 mm 1 mps 723 mmHg 97%

22 January, Friday

Time Temperature Precipitation Wind Pressure Humidity
00:00 +5°C° 1.8 mm 1 mps 722 mmHg 98%
01:00 +4°C° 1.8 mm 0 mps 721 mmHg 98%
02:00 +4°C° 1.5 mm 0 mps 721 mmHg 98%
03:00 +4°C° 1.5 mm 0 mps 720 mmHg 97%
04:00 +5°C° 1.5 mm 1 mps 719 mmHg 97%
05:00 +5°C° 0.4 mm 1 mps 719 mmHg 96%
06:00 +5°C° 0.4 mm 1 mps 719 mmHg 96%
07:00 +5°C° 0.4 mm 1 mps 718 mmHg 95%
08:00 +5°C° 0.1 mm 1 mps 718 mmHg 95%
09:00 +4°C° 0.1 mm 0 mps 718 mmHg 95%
10:00 +5°C° 0.1 mm 0 mps 718 mmHg 95%
11:00 +5°C° 0 mm 0 mps 718 mmHg 93%
12:00 +5°C° 0 mm 0 mps 718 mmHg 92%
13:00 +6°C° 0 mm 0 mps 718 mmHg 90%
14:00 +6°C° 0 mm 0 mps 717 mmHg 90%
15:00 +6°C° 0 mm 0 mps 717 mmHg 89%
16:00 +6°C° 0 mm 0 mps 717 mmHg 89%
17:00 +6°C° 0.2 mm 1 mps 718 mmHg 89%
18:00 +5°C° 0.2 mm 2 mps 718 mmHg 89%
19:00 +5°C° 0.2 mm 2 mps 718 mmHg 88%
20:00 +4°C° 0.1 mm 2 mps 719 mmHg 84%
21:00 +4°C° 0.1 mm 2 mps 719 mmHg 80%
22:00 +3°C° 0.1 mm 2 mps 720 mmHg 76%
23:00 +3°C° 0 mm 2 mps 720 mmHg 73%

23 January, Saturday

Time Temperature Precipitation Wind Pressure Humidity
00:00 +2°C° 0 mm 2 mps 720 mmHg 71%
01:00 +2°C° 0 mm 2 mps 720 mmHg 68%
02:00 +1°C° 0 mm 2 mps 720 mmHg 67%
03:00 +1°C° 0 mm 2 mps 720 mmHg 65%
04:00 +1°C° 0 mm 2 mps 721 mmHg 64%
05:00 +1°C° 0 mm 2 mps 721 mmHg 63%
06:00 +1°C° 0 mm 2 mps 721 mmHg 63%
07:00 +1°C° 0 mm 2 mps 722 mmHg 63%
08:00 +1°C° 0 mm 2 mps 722 mmHg 62%
09:00 +3°C° 0 mm 1 mps 722 mmHg 61%
10:00 +4°C° 0 mm 1 mps 722 mmHg 60%
11:00 +5°C° 0 mm 1 mps 722 mmHg 59%
12:00 +5°C° 0 mm 1 mps 721 mmHg 59%
13:00 +5°C° 0 mm 2 mps 721 mmHg 58%
14:00 +5°C° 0 mm 2 mps 720 mmHg 64%
15:00 +6°C° 0 mm 1 mps 720 mmHg 70%
16:00 +5°C° 0 mm 1 mps 719 mmHg 76%
17:00 +5°C° 0 mm 1 mps 720 mmHg 77%
18:00 +4°C° 0 mm 1 mps 720 mmHg 78%
19:00 +3°C° 0 mm 1 mps 720 mmHg 80%
20:00 +3°C° 0 mm 1 mps 721 mmHg 79%
21:00 +3°C° 0 mm 1 mps 721 mmHg 78%
22:00 +2°C° 0 mm 1 mps 722 mmHg 77%
23:00 +2°C° 0 mm 1 mps 722 mmHg 76%
Show more